Volver al catálogo

FENGYUN 1C DEB

ActivoSSO
NORAD 30298·DEBRIS·🇨🇳 China

Lanzado May 10, 1999 desde Taiyuan Satellite Launch Center

Loading…

Próximos Pases (próximas 24 horas)

TLE

ActualizadoSource: Space-Track

Época: Sep 14, 2026, 05:33 UTC

1 30298U 99025ZK  26257.23181383  .00002160  00000-0  98994-3 0  9999
2 30298  99.0008 358.2438 0046328  60.6883 329.6563 14.21861633  7407

Sigue FENGYUN 1C DEB en tiempo real con AllMySat

Download on the App Store